TimePDT,TemperatureF,Dew PointF,Humidity,Sea Level PressureIn,VisibilityMPH,Wind Direction,Wind SpeedMPH,Gust SpeedMPH,PrecipitationIn,Events,Conditions,WindDirDegrees,DateUTC
12:52 AM,57.0,28.9,34,29.90,10.0,Calm,Calm,-,N/A,,Clear,0,2013-04-11 07:52:00
1:52 AM,54.0,30.0,40,29.88,10.0,NNE,3.5,-,N/A,,Clear,20,2013-04-11 08:52:00
2:52 AM,51.1,28.9,43,29.87,10.0,ENE,3.5,-,N/A,,Clear,60,2013-04-11 09:52:00
3:52 AM,51.1,28.9,43,29.86,10.0,Calm,Calm,-,N/A,,Clear,0,2013-04-11 10:52:00
4:52 AM,46.0,30.0,54,29.85,10.0,Calm,Calm,-,N/A,,Clear,0,2013-04-11 11:52:00
5:52 AM,46.9,30.9,54,29.85,10.0,WNW,3.5,-,N/A,,Clear,300,2013-04-11 12:52:00
6:52 AM,50.0,32.0,50,29.86,10.0,Calm,Calm,-,N/A,,Clear,0,2013-04-11 13:52:00
8:52 AM,68.0,32.0,26,29.86,10.0,SE,5.8,-,N/A,,Clear,140,2013-04-11 15:52:00
9:52 AM,72.0,39.0,30,29.85,10.0,SSE,6.9,-,N/A,,Clear,150,2013-04-11 16:52:00
10:52 AM,75.9,42.1,30,29.84,10.0,Variable,3.5,-,N/A,,Clear,0,2013-04-11 17:52:00
11:52 AM,78.1,37.0,23,29.82,10.0,Variable,3.5,-,N/A,,Clear,0,2013-04-11 18:52:00
12:52 PM,82.0,26.1,13,29.78,10.0,Variable,3.5,-,N/A,,Clear,0,2013-04-11 19:52:00
1:52 PM,84.0,24.1,11,29.74,10.0,Variable,3.5,-,N/A,,Clear,0,2013-04-11 20:52:00
2:52 PM,87.1,27.0,11,29.70,10.0,SE,12.7,16.1,N/A,,Clear,130,2013-04-11 21:52:00
3:52 PM,88.0,26.1,11,29.66,10.0,SSE,9.2,-,N/A,,Clear,160,2013-04-11 22:52:00
4:52 PM,87.1,28.0,12,29.64,10.0,SE,8.1,-,N/A,,Clear,140,2013-04-11 23:52:00
5:52 PM,86.0,27.0,12,29.62,10.0,SE,5.8,-,N/A,,Clear,130,2013-04-12 00:52:00
6:52 PM,82.0,30.9,16,29.62,10.0,Calm,Calm,-,N/A,,Clear,0,2013-04-12 01:52:00
7:52 PM,69.1,34.0,27,29.62,10.0,Calm,Calm,-,N/A,,Clear,0,2013-04-12 02:52:00
8:52 PM,73.9,37.0,26,29.65,10.0,WNW,5.8,-,N/A,,Clear,300,2013-04-12 03:52:00
9:52 PM,75.9,39.9,27,29.66,10.0,NNW,8.1,-,N/A,,Clear,330,2013-04-12 04:52:00
10:52 PM,69.1,41.0,36,29.69,10.0,SW,3.5,-,N/A,,Clear,230,2013-04-12 05:52:00
11:52 PM,69.1,43.0,39,29.70,10.0,NNE,4.6,-,N/A,,Clear,20,2013-04-12 06:52:00